OAL114 SLPO-SBCG

Flight info

Callsign OAL114
Flight time 1h 36m
Altitude 37000
Route ALC UW14 VIR UM411 EVLOL UM411 ATERU UZ42 IRIPI
Aircraft B737/M-VGDW/C

Departure

Time 2026-05-08 19:20
Airport Capitan Nicolas Rojas Airport (SLPO)

Arrival

Time 2026-05-08 20:56
Airport Campo Grande Airport (SBCG)
Time Latitude Longitude Altitude Speed Heading
2026-05-08 18:57 -19.54324 -65.72031 12669 ft 0 kts 96°
2026-05-08 19:10 -19.54321 -65.72017 12667 ft 3 kts 65°
2026-05-08 19:11 -19.54306 -65.72006 12664 ft 4 kts 19°
2026-05-08 19:11 -19.54276 -65.72017 12664 ft 5 kts 324°
2026-05-08 19:11 -19.54255 -65.72034 12665 ft 0 kts 323°
2026-05-08 19:14 -19.54251 -65.72037 12665 ft 2 kts 323°
2026-05-08 19:14 -19.54225 -65.72057 12664 ft 7 kts 324°
2026-05-08 19:14 -19.54176 -65.72091 12668 ft 9 kts 327°
2026-05-08 19:14 -19.54121 -65.72075 12665 ft 9 kts 52°
2026-05-08 19:15 -19.54083 -65.72015 12665 ft 10 kts 56°
2026-05-08 19:15 -19.54044 -65.71955 12658 ft 10 kts 55°
2026-05-08 19:15 -19.54001 -65.71889 12653 ft 12 kts 55°
2026-05-08 19:15 -19.53952 -65.71813 12647 ft 14 kts 55°
2026-05-08 19:16 -19.53895 -65.71724 12640 ft 15 kts 56°
2026-05-08 19:16 -19.53832 -65.71624 12632 ft 18 kts 56°
2026-05-08 19:16 -19.53759 -65.71509 12622 ft 20 kts 56°
2026-05-08 19:16 -19.53689 -65.71398 12613 ft 15 kts 56°
2026-05-08 19:17 -19.53653 -65.71324 12609 ft 6 kts 85°
2026-05-08 19:17 -19.53634 -65.71307 12605 ft 3 kts 316°
2026-05-08 19:17 -19.53636 -65.71316 12605 ft 0 kts 247°
2026-05-08 19:17 -19.53638 -65.71319 12606 ft 1 kts 241°
2026-05-08 19:18 -19.53639 -65.71321 12606 ft 0 kts 237°
2026-05-08 19:18 -19.53641 -65.71325 12607 ft 3 kts 237°
2026-05-08 19:19 -19.53737 -65.71476 12619 ft 52 kts 236°
2026-05-08 19:19 -19.54030 -65.71936 12657 ft 100 kts 236°
2026-05-08 19:19 -19.54505 -65.72676 12708 ft 141 kts 236°
2026-05-08 19:19 -19.55115 -65.73639 12830 ft 170 kts 236°
2026-05-08 19:20 -19.55794 -65.74707 13458 ft 176 kts 237°
2026-05-08 19:20 -19.56250 -65.75432 13767 ft 182 kts 237°
2026-05-08 19:20 -19.57223 -65.76999 14067 ft 195 kts 239°
2026-05-08 19:20 -19.57966 -65.78188 14538 ft 192 kts 237°
2026-05-08 19:21 -19.58676 -65.79433 14813 ft 209 kts 253°
2026-05-08 19:21 -19.58907 -65.81025 14947 ft 230 kts 271°
2026-05-08 19:21 -19.58742 -65.82757 15121 ft 248 kts 277°
2026-05-08 19:21 -19.58423 -65.84641 15246 ft 270 kts 280°
2026-05-08 19:22 -19.57993 -65.86642 15396 ft 288 kts 282°
2026-05-08 19:22 -19.57425 -65.88764 15514 ft 312 kts 290°
2026-05-08 19:22 -19.56227 -65.90795 15677 ft 340 kts 311°
2026-05-08 19:22 -19.54266 -65.92353 15838 ft 367 kts 332°
2026-05-08 19:23 -19.51757 -65.93110 16200 ft 386 kts 352°
2026-05-08 19:23 -19.49070 -65.92876 16959 ft 390 kts 13°
2026-05-08 19:23 -19.46579 -65.91706 17713 ft 396 kts 32°
2026-05-08 19:23 -19.44567 -65.89752 18297 ft 402 kts 51°
2026-05-08 19:24 -19.43165 -65.87187 18850 ft 406 kts 70°
2026-05-08 19:24 -19.42379 -65.84294 19369 ft 410 kts 76°
2026-05-08 19:24 -19.41727 -65.81342 19891 ft 414 kts 77°
2026-05-08 19:24 -19.41104 -65.78342 20334 ft 419 kts 78°
2026-05-08 19:25 -19.40474 -65.75306 20834 ft 423 kts 78°
2026-05-08 19:25 -19.39827 -65.72254 21364 ft 426 kts 77°
2026-05-08 19:25 -19.39160 -65.69174 21890 ft 429 kts 77°
2026-05-08 19:25 -19.38478 -65.66081 22417 ft 432 kts 77°
2026-05-08 19:26 -19.37784 -65.62968 22945 ft 435 kts 77°
2026-05-08 19:26 -19.37080 -65.59831 23448 ft 439 kts 77°
2026-05-08 19:26 -19.36370 -65.56672 23858 ft 442 kts 77°
2026-05-08 19:26 -19.35655 -65.53494 24271 ft 445 kts 77°
2026-05-08 19:27 -19.34933 -65.50288 24664 ft 448 kts 76°
2026-05-08 19:27 -19.34215 -65.47103 25082 ft 452 kts 76°
2026-05-08 19:27 -19.33482 -65.43850 25522 ft 455 kts 76°
2026-05-08 19:27 -19.32743 -65.40571 25926 ft 459 kts 76°
2026-05-08 19:28 -19.31998 -65.37271 26307 ft 463 kts 76°
2026-05-08 19:28 -19.31247 -65.33944 26700 ft 466 kts 76°
2026-05-08 19:28 -19.30490 -65.30593 27104 ft 469 kts 76°
2026-05-08 19:28 -19.29727 -65.27216 27499 ft 473 kts 76°
2026-05-08 19:29 -19.28960 -65.23825 27898 ft 476 kts 75°
2026-05-08 19:29 -19.28185 -65.20406 28237 ft 479 kts 75°
2026-05-08 19:29 -19.27258 -65.17009 28508 ft 482 kts 67°
2026-05-08 19:29 -19.25878 -65.13835 28850 ft 482 kts 59°
2026-05-08 19:30 -19.24080 -65.10847 29166 ft 482 kts 49°
2026-05-08 19:30 -19.21890 -65.08164 29459 ft 482 kts 44°
2026-05-08 19:30 -19.19613 -65.05539 29777 ft 486 kts 44°
2026-05-08 19:30 -19.17342 -65.02861 30068 ft 489 kts 45°
2026-05-08 19:31 -19.15094 -65.00148 30330 ft 491 kts 45°
2026-05-08 19:31 -19.12854 -64.97415 30571 ft 493 kts 45°
2026-05-08 19:31 -19.10605 -64.94663 30823 ft 495 kts 45°
2026-05-08 19:31 -19.08351 -64.91903 31069 ft 496 kts 45°
2026-05-08 19:32 -19.06096 -64.89146 31363 ft 496 kts 45°
2026-05-08 19:32 -19.03870 -64.86429 31727 ft 494 kts 45°
2026-05-08 19:32 -19.01619 -64.83685 32150 ft 492 kts 45°
2026-05-08 19:32 -18.99375 -64.80952 32550 ft 491 kts 45°
2026-05-08 19:33 -18.97135 -64.78228 32936 ft 490 kts 44°
2026-05-08 19:33 -18.94899 -64.75510 33377 ft 488 kts 44°
2026-05-08 19:33 -18.92679 -64.72811 33788 ft 486 kts 44°
2026-05-08 19:33 -18.90456 -64.70110 34136 ft 485 kts 44°
2026-05-08 19:34 -18.88270 -64.67455 34450 ft 484 kts 44°
2026-05-08 19:34 -18.86059 -64.64771 34778 ft 483 kts 44°
2026-05-08 19:34 -18.83855 -64.62095 35093 ft 482 kts 44°
2026-05-08 19:34 -18.81657 -64.59429 35409 ft 481 kts 44°
2026-05-08 19:35 -18.79465 -64.56771 35689 ft 480 kts 43°
2026-05-08 19:35 -18.77271 -64.54108 35902 ft 481 kts 44°
2026-05-08 19:35 -18.75081 -64.51432 36172 ft 481 kts 44°
2026-05-08 19:35 -18.72906 -64.48760 36534 ft 478 kts 44°
2026-05-08 19:36 -18.70748 -64.46105 36867 ft 477 kts 43°
2026-05-08 19:36 -18.66390 -64.40756 36905 ft 483 kts 43°
2026-05-08 19:37 -18.62025 -64.35401 36870 ft 477 kts 43°
2026-05-08 19:37 -18.57735 -64.30147 36927 ft 476 kts 43°
2026-05-08 19:38 -18.53392 -64.24842 36937 ft 479 kts 43°
2026-05-08 19:38 -18.49018 -64.19500 36939 ft 483 kts 43°
2026-05-08 19:39 -18.44616 -64.14127 36941 ft 485 kts 43°
2026-05-08 19:39 -18.40200 -64.08737 36940 ft 486 kts 43°
2026-05-08 19:40 -18.35784 -64.03353 36959 ft 485 kts 43°
2026-05-08 19:40 -18.31405 -63.98019 36957 ft 484 kts 43°
2026-05-08 19:41 -18.27004 -63.92662 36973 ft 483 kts 43°
2026-05-08 19:41 -18.22608 -63.87319 36973 ft 482 kts 43°
2026-05-08 19:42 -18.18209 -63.81977 36983 ft 481 kts 43°
2026-05-08 19:42 -18.13826 -63.76657 36991 ft 481 kts 43°
2026-05-08 19:43 -18.09477 -63.71383 36993 ft 480 kts 42°
2026-05-08 19:43 -18.05103 -63.66082 36981 ft 479 kts 42°
2026-05-08 19:44 -18.00729 -63.60788 36978 ft 479 kts 42°
2026-05-08 19:44 -17.96350 -63.55489 36970 ft 479 kts 42°
2026-05-08 19:45 -17.92009 -63.50242 36973 ft 478 kts 42°
2026-05-08 19:45 -17.87634 -63.44959 36962 ft 479 kts 42°
2026-05-08 19:46 -17.83265 -63.39686 36969 ft 478 kts 42°
2026-05-08 19:46 -17.76733 -63.31811 36967 ft 478 kts 42°
2026-05-08 19:47 -17.72363 -63.26546 36964 ft 478 kts 42°
2026-05-08 19:47 -17.67996 -63.21289 36938 ft 477 kts 42°
2026-05-08 19:48 -17.64411 -63.15403 36949 ft 494 kts 70°
2026-05-08 19:48 -17.63837 -63.11822 36934 ft 503 kts 86°
2026-05-08 19:48 -17.64222 -63.08169 36942 ft 507 kts 103°
2026-05-08 19:49 -17.66188 -63.01066 36940 ft 507 kts 106°
2026-05-08 19:49 -17.68265 -62.94034 36937 ft 507 kts 105°
2026-05-08 19:50 -17.70280 -62.86942 36953 ft 506 kts 105°
2026-05-08 19:50 -17.72224 -62.79884 36958 ft 506 kts 104°
2026-05-08 19:51 -17.74160 -62.72787 36962 ft 506 kts 104°
2026-05-08 19:51 -17.76097 -62.65693 36961 ft 505 kts 104°
2026-05-08 19:52 -17.78031 -62.58611 36959 ft 505 kts 104°
2026-05-08 19:52 -17.79966 -62.51519 36963 ft 505 kts 104°
2026-05-08 19:53 -17.81896 -62.44433 36963 ft 504 kts 104°
2026-05-08 19:53 -17.83812 -62.37387 36965 ft 504 kts 104°
2026-05-08 19:54 -17.85741 -62.30284 36971 ft 504 kts 104°
2026-05-08 19:54 -17.87660 -62.23207 36966 ft 504 kts 104°
2026-05-08 19:55 -17.89563 -62.16174 36969 ft 504 kts 104°
2026-05-08 19:55 -17.91479 -62.09084 36974 ft 504 kts 104°
2026-05-08 19:56 -17.93391 -62.01998 36965 ft 505 kts 104°
2026-05-08 19:56 -17.95303 -61.94901 36974 ft 505 kts 104°
2026-05-08 19:57 -17.97219 -61.87778 36968 ft 505 kts 104°
2026-05-08 19:57 -17.99126 -61.80680 36974 ft 505 kts 104°
2026-05-08 19:58 -18.01040 -61.73632 36971 ft 505 kts 105°
2026-05-08 19:58 -18.02981 -61.66539 36969 ft 504 kts 105°
2026-05-08 19:59 -18.04588 -61.60652 36967 ft 504 kts 105°
2026-05-08 19:59 -18.06836 -61.52383 36973 ft 503 kts 105°
2026-05-08 20:00 -18.08431 -61.46506 36979 ft 503 kts 105°
2026-05-08 20:00 -18.10365 -61.39431 36976 ft 503 kts 105°
2026-05-08 20:01 -18.12346 -61.32372 36972 ft 503 kts 105°
2026-05-08 20:01 -18.14334 -61.25309 36978 ft 503 kts 105°
2026-05-08 20:02 -18.16298 -61.18293 36976 ft 504 kts 105°
2026-05-08 20:02 -18.18271 -61.11218 36965 ft 504 kts 105°
2026-05-08 20:03 -18.20243 -61.04130 36970 ft 504 kts 105°
2026-05-08 20:03 -18.22212 -60.97046 36962 ft 504 kts 105°
2026-05-08 20:04 -18.24180 -60.89952 36962 ft 504 kts 105°
2026-05-08 20:04 -18.26130 -60.82912 36955 ft 504 kts 105°
2026-05-08 20:05 -18.28093 -60.75819 36950 ft 504 kts 105°
2026-05-08 20:05 -18.30050 -60.68731 36954 ft 504 kts 105°
2026-05-08 20:06 -18.32006 -60.61639 36953 ft 504 kts 105°
2026-05-08 20:06 -18.33956 -60.54557 36950 ft 504 kts 105°
2026-05-08 20:07 -18.35903 -60.47476 36953 ft 503 kts 105°
2026-05-08 20:07 -18.37844 -60.40402 36950 ft 503 kts 105°
2026-05-08 20:08 -18.39780 -60.33336 36948 ft 502 kts 105°
2026-05-08 20:08 -18.41711 -60.26281 36950 ft 501 kts 105°
2026-05-08 20:09 -18.43641 -60.19214 36956 ft 501 kts 105°
2026-05-08 20:09 -18.45554 -60.12203 36950 ft 501 kts 105°
2026-05-08 20:10 -18.47474 -60.05150 36965 ft 501 kts 105°
2026-05-08 20:10 -18.49389 -59.98105 36975 ft 500 kts 105°
2026-05-08 20:11 -18.51302 -59.91059 36987 ft 500 kts 105°
2026-05-08 20:11 -18.53212 -59.84014 36984 ft 499 kts 105°
2026-05-08 20:12 -18.55107 -59.77010 36993 ft 500 kts 105°
2026-05-08 20:12 -18.57010 -59.69964 36980 ft 500 kts 105°
2026-05-08 20:13 -18.58914 -59.62904 36965 ft 500 kts 105°
2026-05-08 20:13 -18.60814 -59.55849 36956 ft 500 kts 105°
2026-05-08 20:14 -18.62712 -59.48793 36952 ft 500 kts 104°
2026-05-08 20:14 -18.64606 -59.41735 36957 ft 500 kts 104°
2026-05-08 20:15 -18.66499 -59.34673 36945 ft 500 kts 104°
2026-05-08 20:15 -18.68387 -59.27617 36946 ft 500 kts 104°
2026-05-08 20:16 -18.70263 -59.20592 36947 ft 499 kts 104°
2026-05-08 20:16 -18.72147 -59.13531 36952 ft 499 kts 104°
2026-05-08 20:17 -18.74026 -59.06473 36946 ft 499 kts 104°
2026-05-08 20:17 -18.75901 -58.99419 36946 ft 499 kts 104°
2026-05-08 20:18 -18.77757 -58.92423 36951 ft 499 kts 104°
2026-05-08 20:18 -18.79627 -58.85367 36948 ft 500 kts 104°
2026-05-08 20:19 -18.81494 -58.78308 36945 ft 500 kts 104°
2026-05-08 20:19 -18.83362 -58.71235 36945 ft 500 kts 104°
2026-05-08 20:20 -18.85224 -58.64172 36940 ft 500 kts 104°
2026-05-08 20:20 -18.87131 -58.57108 36942 ft 500 kts 105°
2026-05-08 20:21 -18.89075 -58.50064 36940 ft 500 kts 105°
2026-05-08 20:21 -18.91009 -58.43014 36940 ft 500 kts 105°
2026-05-08 20:22 -18.92936 -58.35947 36942 ft 500 kts 105°
2026-05-08 20:22 -18.94862 -58.28876 36938 ft 500 kts 105°
2026-05-08 20:23 -18.96791 -58.21812 36935 ft 500 kts 105°
2026-05-08 20:23 -18.98724 -58.14743 36925 ft 501 kts 105°
2026-05-08 20:24 -19.00650 -58.07679 36916 ft 501 kts 105°
2026-05-08 20:24 -19.02563 -58.00649 36899 ft 501 kts 105°
2026-05-08 20:25 -19.04485 -57.93575 36899 ft 501 kts 105°
2026-05-08 20:25 -19.06405 -57.86494 36882 ft 501 kts 105°
2026-05-08 20:26 -19.08348 -57.79417 36884 ft 501 kts 107°
2026-05-08 20:26 -19.10611 -57.72453 36914 ft 501 kts 110°
2026-05-08 20:27 -19.12995 -57.65530 36923 ft 501 kts 110°
2026-05-08 20:27 -19.15350 -57.58589 36923 ft 502 kts 109°
2026-05-08 20:28 -19.17675 -57.51619 36907 ft 503 kts 109°
2026-05-08 20:28 -19.19988 -57.44645 36911 ft 502 kts 109°
2026-05-08 20:29 -19.22295 -57.37684 36914 ft 501 kts 109°
2026-05-08 20:29 -19.24600 -57.30725 36916 ft 501 kts 109°
2026-05-08 20:30 -19.26900 -57.23775 36914 ft 500 kts 109°
2026-05-08 20:30 -19.29195 -57.16827 36911 ft 500 kts 109°
2026-05-08 20:31 -19.31488 -57.09877 36913 ft 500 kts 109°
2026-05-08 20:31 -19.33778 -57.02926 36909 ft 500 kts 109°
2026-05-08 20:32 -19.36312 -56.96085 36909 ft 500 kts 117°
2026-05-08 20:32 -19.39524 -56.89556 36899 ft 500 kts 119°
2026-05-08 20:33 -19.42804 -56.83052 36896 ft 501 kts 119°
2026-05-08 20:33 -19.46027 -56.76561 36895 ft 501 kts 118°
2026-05-08 20:34 -19.49238 -56.70014 36896 ft 501 kts 118°
2026-05-08 20:35 -19.54049 -56.60163 36895 ft 502 kts 118°
2026-05-08 20:35 -19.57257 -56.53590 36891 ft 502 kts 118°
2026-05-08 20:36 -19.60465 -56.47014 36886 ft 502 kts 118°
2026-05-08 20:36 -19.63676 -56.40425 36881 ft 503 kts 118°
2026-05-08 20:37 -19.66885 -56.33831 36645 ft 507 kts 119°
2026-05-08 20:37 -19.68511 -56.30490 36022 ft 510 kts 119°
2026-05-08 20:37 -19.70134 -56.27149 35378 ft 509 kts 119°
2026-05-08 20:37 -19.71764 -56.23793 34651 ft 511 kts 119°
2026-05-08 20:38 -19.73397 -56.20429 33881 ft 514 kts 119°
2026-05-08 20:38 -19.75039 -56.17044 33083 ft 516 kts 119°
2026-05-08 20:38 -19.76669 -56.13680 32545 ft 511 kts 119°
2026-05-08 20:38 -19.78290 -56.10333 31967 ft 507 kts 119°
2026-05-08 20:39 -19.79892 -56.07022 31423 ft 503 kts 119°
2026-05-08 20:39 -19.81486 -56.03727 30871 ft 500 kts 119°
2026-05-08 20:39 -19.83068 -56.00457 30332 ft 496 kts 119°
2026-05-08 20:39 -19.84620 -55.97246 29763 ft 494 kts 119°
2026-05-08 20:40 -19.86182 -55.94015 29153 ft 490 kts 119°
2026-05-08 20:40 -19.87729 -55.90810 28560 ft 485 kts 119°
2026-05-08 20:40 -19.89262 -55.87635 27992 ft 481 kts 119°
2026-05-08 20:40 -19.90779 -55.84488 27441 ft 476 kts 118°
2026-05-08 20:41 -19.92284 -55.81367 26892 ft 472 kts 118°
2026-05-08 20:41 -19.93772 -55.78280 26342 ft 468 kts 118°
2026-05-08 20:41 -19.95247 -55.75216 25811 ft 464 kts 118°
2026-05-08 20:41 -19.96711 -55.72174 25265 ft 460 kts 118°
2026-05-08 20:42 -19.98164 -55.69153 24706 ft 458 kts 118°
2026-05-08 20:42 -19.99609 -55.66148 24159 ft 455 kts 117°
2026-05-08 20:42 -20.01068 -55.63173 23617 ft 452 kts 120°
2026-05-08 20:42 -20.02813 -55.60406 22990 ft 449 kts 131°
2026-05-08 20:43 -20.04856 -55.57919 22423 ft 444 kts 134°
2026-05-08 20:43 -20.06925 -55.55504 21867 ft 439 kts 134°
2026-05-08 20:43 -20.08979 -55.53116 21322 ft 435 kts 134°
2026-05-08 20:43 -20.11006 -55.50741 20792 ft 431 kts 134°
2026-05-08 20:44 -20.12996 -55.48384 20248 ft 423 kts 133°
2026-05-08 20:44 -20.14933 -55.46073 19728 ft 414 kts 133°
2026-05-08 20:44 -20.16834 -55.43797 19217 ft 410 kts 133°
2026-05-08 20:44 -20.18728 -55.41528 18685 ft 409 kts 133°
2026-05-08 20:45 -20.20616 -55.39266 18160 ft 406 kts 133°
2026-05-08 20:45 -20.21876 -55.37755 17744 ft 402 kts 133°
2026-05-08 20:45 -20.24283 -55.34821 17033 ft 395 kts 129°
2026-05-08 20:45 -20.25792 -55.32392 16522 ft 393 kts 118°
2026-05-08 20:46 -20.26625 -55.30637 16201 ft 391 kts 116°
2026-05-08 20:46 -20.27787 -55.28067 15695 ft 390 kts 115°
2026-05-08 20:46 -20.29337 -55.24590 15001 ft 388 kts 115°
2026-05-08 20:46 -20.30106 -55.22875 14667 ft 387 kts 115°
2026-05-08 20:47 -20.31282 -55.20275 14135 ft 381 kts 115°
2026-05-08 20:47 -20.32411 -55.17798 13642 ft 373 kts 115°
2026-05-08 20:47 -20.33539 -55.15334 13099 ft 367 kts 115°
2026-05-08 20:47 -20.34655 -55.12897 12605 ft 365 kts 115°
2026-05-08 20:48 -20.35768 -55.10469 12109 ft 364 kts 114°
2026-05-08 20:48 -20.36877 -55.08047 11621 ft 363 kts 114°
2026-05-08 20:48 -20.37983 -55.05632 11142 ft 362 kts 114°
2026-05-08 20:48 -20.39079 -55.03266 10971 ft 350 kts 117°
2026-05-08 20:49 -20.40491 -55.01178 10504 ft 350 kts 135°
2026-05-08 20:49 -20.42258 -54.99387 9975 ft 349 kts 137°
2026-05-08 20:49 -20.44015 -54.97650 9754 ft 333 kts 137°
2026-05-08 20:49 -20.45659 -54.96012 9616 ft 317 kts 137°
2026-05-08 20:50 -20.47251 -54.94410 9163 ft 314 kts 137°
2026-05-08 20:50 -20.48832 -54.92805 8649 ft 313 kts 136°
2026-05-08 20:50 -20.50392 -54.91213 8345 ft 305 kts 136°
2026-05-08 20:50 -20.51889 -54.89682 8188 ft 292 kts 136°
2026-05-08 20:51 -20.53336 -54.88201 7957 ft 283 kts 135°
2026-05-08 20:51 -20.54686 -54.86707 7689 ft 277 kts 130°
2026-05-08 20:51 -20.55974 -54.85191 7318 ft 276 kts 130°
2026-05-08 20:51 -20.57262 -54.83675 6932 ft 274 kts 130°
2026-05-08 20:52 -20.58535 -54.82184 6446 ft 271 kts 130°
2026-05-08 20:52 -20.59457 -54.80574 6241 ft 238 kts 93°
2026-05-08 20:52 -20.59327 -54.78990 5794 ft 202 kts 48°
2026-05-08 20:52 -20.58388 -54.78027 5207 ft 184 kts 24°
2026-05-08 20:53 -20.57369 -54.77201 4732 ft 183 kts 28°
2026-05-08 20:53 -20.56382 -54.76326 4183 ft 185 kts 31°
2026-05-08 20:53 -20.55410 -54.75429 3708 ft 183 kts 32°
2026-05-08 20:53 -20.54466 -54.74592 3537 ft 175 kts 31°
2026-05-08 20:54 -20.53558 -54.73750 3303 ft 167 kts 34°
2026-05-08 20:54 -20.52753 -54.72968 3117 ft 146 kts 33°
2026-05-08 20:54 -20.52032 -54.72270 2923 ft 140 kts 32°
2026-05-08 20:54 -20.51318 -54.71581 2738 ft 140 kts 32°
2026-05-08 20:55 -20.50597 -54.70882 2562 ft 140 kts 35°
2026-05-08 20:55 -20.49874 -54.70182 2461 ft 141 kts 38°
2026-05-08 20:55 -20.49140 -54.69470 2223 ft 145 kts 39°
2026-05-08 20:55 -20.48394 -54.68751 2006 ft 145 kts 41°
2026-05-08 20:56 -20.47678 -54.68049 1846 ft 134 kts 41°
2026-05-08 20:56 -20.47082 -54.67477 1837 ft 87 kts 42°
2026-05-08 20:56 -20.46783 -54.67187 1839 ft 41 kts 42°
2026-05-08 20:56 -20.46583 -54.66996 1838 ft 36 kts 42°
2026-05-08 20:57 -20.46408 -54.66827 1837 ft 32 kts 42°
2026-05-08 20:57 -20.46252 -54.66675 1836 ft 29 kts 42°
2026-05-08 20:57 -20.46144 -54.66600 1837 ft 11 kts 345°
2026-05-08 20:57 -20.46072 -54.66634 1838 ft 11 kts 336°
2026-05-08 20:58 -20.46001 -54.66666 1838 ft 11 kts 338°
2026-05-08 20:58 -20.45931 -54.66694 1838 ft 11 kts 340°
2026-05-08 20:58 -20.45864 -54.66719 1838 ft 10 kts 341°
2026-05-08 20:58 -20.45836 -54.66751 1838 ft 6 kts 270°
2026-05-08 20:59 -20.45836 -54.66797 1838 ft 6 kts 270°
2026-05-08 20:59 -20.45839 -54.66841 1838 ft 6 kts 264°
2026-05-08 20:59 -20.45842 -54.66884 1838 ft 6 kts 279°
2026-05-08 20:59 -20.45803 -54.66894 1838 ft 6 kts 355°
2026-05-08 21:00 -20.45790 -54.66895 1838 ft 0 kts 355°